FW0896 Weather Reports


Display with metric or nautical units.
time (UTC)temp
F
wind
direction
speed
MPH
gust
MPH
rain 1hr
in
rain 24hr
in
rain mn
in
humidity
%
barometer
mb
20260905101541 70 105 3.0 5.0 0.00 0.00 0.00 96 1013.0
20260905100030 70 94 2.0 5.0 0.00 0.00 0.00 96 1013.2
20260905094529 71 87 2.0 4.0 0.00 0.00 0.00 96 1013.3
20260905093028 71 93 1.0 4.0 0.00 0.00 0.00 96 1012.9
20260905091526 71 65 2.0 3.0 0.00 0.00 0.00 96 1012.4
20260905090023 71 70 2.0 4.0 0.00 0.00 0.00 96 1012.6
20260905084522 72 70 2.0 3.0 0.00 0.00 0.00 95 1012.7
20260905083027 72 40 1.0 2.0 0.00 0.00 0.00 95 1013.0
20260905081520 72 36 2.0 6.0 0.00 0.00 0.00 95 1013.0
20260905080020 72 42 2.0 5.0 0.00 0.00 0.00 95 1013.0
20260905074520 72 38 3.0 4.0 0.00 0.00 0.00 95 1013.0
20260905073023 72 75 2.0 4.0 0.00 0.00 0.00 95 1013.1
20260905071516 73 49 2.0 4.0 0.00 0.00 0.00 94 1012.9
20260905070016 73 68 2.0 3.0 0.00 0.00 0.00 94 1012.9
20260905064521 74 88 1.0 4.0 0.00 0.00 0.00 94 1012.8
20260905063011 74 86 1.0 3.0 0.00 0.00 0.00 94 1012.8
20260905061509 74 49 2.0 3.0 0.00 0.00 0.00 94 1013.0
20260905060015 74 54 1.0 3.0 0.00 0.00 0.00 93 1012.8
20260905054506 75 48 2.0 4.0 0.00 0.00 0.00 93 1012.8
20260905053003 75 39 3.0 5.0 0.00 0.00 0.00 93 1012.7
20260905051558 75 39 3.0 4.0 0.00 0.00 0.00 93 1012.5
20260905050054 76 48 3.0 5.0 0.00 0.00 0.00 93 1012.6
20260905044600 76 48 2.0 4.0 0.00 0.00 0.00 93 1012.7
20260905043053 76 49 3.0 6.0 0.00 0.00 0.00 92 1012.5
20260905041554 76 34 2.0 5.0 0.00 0.00 0.00 92 1012.7
20260905040051 77 33 3.0 6.0 0.00 0.00 0.00 91 1012.8
20260905034552 77 34 4.0 8.0 0.00 0.00 0.00 92 1012.7
20260905033049 78 27 6.0 9.0 0.00 0.00 0.00 92 1012.6
20260905031547 78 27 3.0 7.0 0.00 0.00 0.00 92 1012.5
20260905030052 79 25 3.0 6.0 0.00 0.00 0.00 91 1012.5
20260905024543 79 24 3.0 6.0 0.00 0.00 0.00 90 1012.1
20260905023041 80 21 2.0 4.0 0.00 0.00 0.00 89 1012.2
20260905021539 81 359 0.0 3.0 0.00 0.00 0.00 87 1012.0
20260905020054 82 189 1.0 2.0 0.00 0.00 0.00 84 1011.9
20260905014535 83 188 0.0 0.0 0.00 0.00 0.00 82 1011.7
20260905013039 84 188 0.0 0.0 0.00 0.00 0.00 81 1011.5
20260905011529 85 188 0.0 0.0 0.00 0.00 0.00 80 1011.2
20260905010028 86 188 0.0 0.0 0.00 0.00 0.00 78 1011.1
20260905004527 87 188 0.0 0.0 0.00 0.00 0.00 77 1011.2
20260905003025 87 188 0.0 0.0 0.00 0.00 0.00 75 1011.2
20260905001524 88 188 0.0 0.0 0.00 0.00 0.00 75 1011.0
20260905000021 89 188 0.0 0.0 0.00 0.00 0.00 74 1011.0
20260904234520 89 188 0.0 0.0 0.00 0.00 0.00 73 1010.8
20260904233013 91 189 0.0 0.0 0.00 0.00 0.00 72 1010.9
20260904231534 91 186 0.0 0.0 0.00 0.00 0.00 72 1011.0
20260904230030 93 187 0.0 0.0 0.00 0.00 0.00 68 1010.8
20260904224529 93 184 0.0 1.0 0.00 0.00 0.00 67 1010.7
20260904223028 94 197 0.0 2.0 0.00 0.00 0.00 66 1010.5
20260904221528 93 210 0.0 2.0 0.00 0.00 0.00 66 1010.5
20260904220027 93 235 1.0 4.0 0.00 0.00 0.00 66 1010.5
20260904214527 95 209 2.0 5.0 0.00 0.00 0.00 63 1010.5
20260904213029 97 207 0.0 2.0 0.00 0.00 0.00 63 1010.5
20260904211523 95 220 1.0 4.0 0.00 0.00 0.00 63 1010.5
20260904210026 97 176 0.0 1.0 0.00 0.00 0.00 64 1010.3
20260904204515 95 122 0.0 0.0 0.00 0.00 0.00 66 1010.4
20260904203013 94 94 0.0 0.0 0.00 0.00 0.00 67 1010.4
20260904201512 93 81 1.0 4.0 0.00 0.00 0.00 68 1010.5
20260904200009 95 122 0.0 0.0 0.00 0.00 0.00 66 1010.5
20260904194503 95 155 0.0 1.0 0.00 0.00 0.00 66 1010.4
20260904193100 94 86 0.0 4.0 0.00 0.00 0.00 68 1010.4
20260904191554 94 194 0.0 3.0 0.00 0.00 0.00 66 1010.5
20260904190049 92 94 0.0 2.0 0.00 0.00 0.00 68 1010.5
20260904184549 92 86 1.0 3.0 0.00 0.00 0.00 67 1010.7
20260904183042 92 145 0.0 3.0 0.00 0.00 0.00 70 1010.6
20260904181545 90 76 0.0 4.0 0.00 0.00 0.00 72 1010.6
20260904180038 90 1 0.0 5.0 0.00 0.00 0.00 71 1010.7
20260904174534 91 75 0.0 3.0 0.00 0.00 0.00 69 1010.7
20260904173029 89 34 0.0 4.0 0.00 0.00 0.00 74 1010.6
20260904171529 87 32 0.0 3.0 0.00 0.00 0.00 76 1010.6
20260904170022 87 25 1.0 5.0 0.00 0.00 0.00 73 1010.6
20260904164520 86 39 0.0 5.0 0.00 0.00 0.00 73 1010.6
20260904163018 86 23 1.0 4.0 0.00 0.00 0.00 75 1010.6
20260904161514 84 259 0.0 0.0 0.00 0.00 0.00 77 1010.6
20260904160012 83 260 0.0 2.0 0.00 0.00 0.00 79 1010.7
20260904154508 82 258 1.0 3.0 0.00 0.00 0.00 80 1010.6
20260904153006 82 242 1.0 4.0 0.00 0.00 0.00 82 1010.5
20260904151503 81 250 1.0 4.0 0.00 0.00 0.00 81 1010.5
20260904150003 80 204 1.0 4.0 0.00 0.00 0.00 83 1010.5
20260904144558 80 231 2.0 4.0 0.00 0.00 0.00 83 1010.5
20260904143055 79 217 2.0 6.0 0.00 0.00 0.00 85 1010.4
20260904141552 78 223 2.0 5.0 0.00 0.00 0.00 87 1010.3
20260904140049 77 210 0.0 4.0 0.00 0.00 0.00 88 1010.2
20260904134548 76 216 1.0 4.0 0.00 0.08 0.00 88 1010.3
20260904133044 76 181 0.0 5.0 0.00 0.08 0.00 90 1010.5
20260904131556 75 195 0.0 0.0 0.00 0.08 0.00 89 1010.6
20260904130041 74 195 0.0 0.0 0.00 0.08 0.00 90 1010.7
20260904124540 73 194 0.0 3.0 0.00 0.08 0.00 89 1010.5
20260904123037 73 207 1.0 3.0 0.00 0.08 0.00 90 1010.2
20260904121537 73 221 1.0 3.0 0.00 0.08 0.00 90 1010.0
20260904120043 73 195 1.0 3.0 0.00 0.08 0.00 90 1010.0
20260904114533 73 186 3.0 5.0 0.00 0.16 0.00 91 1009.9
20260904113033 73 203 0.0 3.0 0.00 0.16 0.00 91 1009.7
20260904111540 73 203 1.0 4.0 0.00 0.16 0.00 90 1009.6
20260904110028 73 198 2.0 5.0 0.00 0.16 0.00 91 1009.5
20260904104527 73 195 2.0 3.0 0.00 0.17 0.00 91 1009.4
20260904103033 73 205 0.0 3.0 0.00 0.17 0.00 91 1009.5